Regional Weather Roundup
Issued by NWS

Home | Current Version | Previous Version | Graphics & Text | Print | Product List | Glossary On
Versions: 1 2 3 4 5 6 7 8 9 10 11 12 13 14 15 16 17 18 19 20 21 22 23 24 25 26 27 28 29 30 31 32 33 34 35 36 37 38 39 40 41 42 43 44 45 46 47 48 49 50
000
ASUS43 KLSX 031957
RWRMO

WEATHER ROUNDUP FOR MISSOURI
NATIONAL WEATHER SERVICE ST LOUIS MO
300 PM CDT MON AUG 03 2015

NOTE: "FAIR" INDICATES FEW OR NO CLOUDS BELOW 12,000 FEET WITH NO
       SIGNIFICANT WEATHER AND/OR OBSTRUCTIONS TO VISIBILITY.
       CURRENT SKY AND/OR WEATHER CONDITIONS ARE NOT AVAILABLE FOR
       CHILLICOTHE AND FARMINGTON.

MOZ001>031-035>038-043-044-053-054-032100-
...NORTHERN AND WESTERN MISSOURI...

CITY           SKY/WX    TMP DP  RH WIND       PRES   REMARKS
KANSAS CTY INT PTSUNNY   83  69  62 E10       29.94S
LEE`S SUMMIT   SUNNY     86  69  56 NE12      29.95R HX  90
ST JOSEPH      MOSUNNY   83  71  67 E5        29.94F
CHILLICOTHE      N/A     81  65  58 NE6       29.97S

$$
MOZ066>068-077>081-088>096-101>105-032100-
...SOUTHWEST MISSOURI...

CITY           SKY/WX    TMP DP  RH WIND       PRES   REMARKS
SPRINGFIELD    MOSUNNY   92  64  39 W8        29.97S HX  93
JOPLIN         PTSUNNY   94  62  34 W8        29.96S HX  94

$$
MOZ032>034-039>042-045>050-055>058-069>072-032100-
...CENTRAL MISSOURI...

CITY           SKY/WX    TMP DP  RH WIND       PRES   REMARKS
COLUMBIA       NOT AVBL
JEFFERSON CITY CLOUDY    87  65  47 NW8       29.95R
ROLLA          PTSUNNY   87  70  56 W8        29.96R HX  92
SEDALIA        CLOUDY    86  67  52 E6        29.97F

$$
MOZ051-052-059>065-032100-
...EAST CENTRAL MISSOURI...

CITY           SKY/WX    TMP DP  RH WIND       PRES   REMARKS
ST LOUIS INTL  PTSUNNY   93  67  42 NW10      29.93R HX  96

$$
MOZ072>076-082>087-097>100-106>115-032100-
...SOUTH CENTRAL AND SOUTHEAST MISSOURI...

CITY           SKY/WX    TMP DP  RH WIND       PRES   REMARKS
CAPE GIRARDEAU SUNNY     91  72  53 W9        29.90S HX  98
POPLAR BLUFF   SUNNY     94  68  42 W6        29.90S HX  98
WEST PLAINS    MOSUNNY   91  64  40 W10       29.98F HX  92
$$


USA.gov is the U.S. government's official web portal to all federal, state and local government web resources and services.